Flag for Botswana Weather past 2 weeks in Molepolole, Botswana

Now
64 °F

Passing clouds.


Feels Like: 64 °F
Forecast: 60 / 84 °F
Wind: 3 mph from North

Location: Seretse Khama International Airport

Current Time: Aug 21, 2014 at 12:27:30 AM

Latest Report: Aug 21, 2014 at 12:00 AM


Visibility: N/A

Pressure: 30.04 "Hg

Humidity: 28%

Dew point: 30 °F

Location of MolepololeLocation

Historic Weather in Molepolole — Graph

°F

Molepolole temperature yesterday

Maximum temperature yesterday: 88 °F (at 3:00 PM)
Minimum temperature yesterday: 55 °F (at 7:00 AM)
Average temperature yesterday: 72 °F

Past Weeks' High & Low Weather Summary

 TemperatureHumidityPressure
High91 °F (Aug 17, 5:00 PM)88% (Aug 10, 2:00 AM)30.45 "Hg (Aug 10, 2:00 AM)
Low48 °F (Aug 6, 6:00 AM)10% (Aug 6, 4:00 PM)30.04 "Hg (Aug 6, 2:00 PM)
Average65 °F43%30.21 "Hg
* Reported Aug 5 11:00 PM — Aug 20 11:00 PM, Molepolole, Weather by CustomWeather, © 2014

Note: Actual official high and low records may vary slightly from our data, if they occured in-between our weather recording intervals... More about our weather records

Advertising

Molepolole weather history for previous 24 hours

 ConditionsComfort  
Time TempWeatherWind HumidityBarometerVisibility
11:00 PM
Aug 20
70 °FPassing clouds.3 mph23%30.07 "HgN/A
10:00 PM70 °FClear.6 mph23%30.07 "Hg10 mi
9:00 PM72 °FClear.1 mph20%30.07 "Hg10 mi
8:00 PM72 °FClear.3 mph20%30.07 "Hg10 mi
7:00 PM75 °FClear.2 mph18%30.04 "Hg10 mi
6:00 PM82 °FClear.5 mph14%30.04 "Hg10 mi
5:00 PM86 °FPassing clouds.3 mph12%30.04 "HgN/A
4:00 PM88 °FPassing clouds.6 mph12%30.04 "HgN/A
3:00 PM88 °FSunny.6 mph13%30.04 "Hg10 mi
2:00 PM86 °FPassing clouds.10 mph12%30.07 "HgN/A
1:00 PM86 °FPassing clouds.12 mph12%30.09 "HgN/A
12:00 PM84 °FSunny.7 mph13%30.15 "Hg10 mi
11:00 AM81 °FPassing clouds.7 mph16%30.18 "HgN/A
10:00 AM75 °FPassing clouds.6 mph21%30.18 "HgN/A
9:00 AM70 °FPassing clouds.6 mph25%30.18 "HgN/A
8:00 AM63 °FSunny.2 mph34%30.18 "Hg10 mi
7:00 AM55 °FSunny.2 mph41%30.15 "Hg10 mi
6:00 AM63 °FSunny.6 mph32%30.15 "Hg10 mi
5:00 AM63 °FClear.6 mph34%30.12 "Hg10 mi
4:00 AM61 °FClear.6 mph39%30.09 "Hg10 mi
3:00 AM61 °FClear.2 mph42%30.12 "Hg10 mi
2:00 AM63 °FClear.1 mph39%30.12 "Hg10 mi
1:00 AM61 °FClear.1 mph42%30.15 "Hg10 mi
12:00 AM64 °FPassing clouds.6 mph37%30.15 "HgN/A
Weather by CustomWeather, © 2014

See weather overviewHow to use our weather pages